Meteo pe oră la Czyszkowek

Astăzi, 10 Aprilie, Sâmbătă

Timp Temperatura Precipitaţii Vânt Presiune Umiditate
00:00 +3°C° 0 mm 4 m/s 751 mmHg 66%
01:00 +3°C° 0 mm 4 m/s 751 mmHg 66%
02:00 +3°C° 0 mm 4 m/s 750 mmHg 67%
03:00 +3°C° 0 mm 4 m/s 750 mmHg 67%
04:00 +3°C° 0 mm 4 m/s 750 mmHg 67%
05:00 +4°C° 0 mm 4 m/s 750 mmHg 67%
06:00 +4°C° 0 mm 4 m/s 750 mmHg 67%
07:00 +5°C° 0 mm 4 m/s 750 mmHg 67%
08:00 +7°C° 0 mm 4 m/s 750 mmHg 61%
09:00 +9°C° 0 mm 5 m/s 750 mmHg 56%
10:00 +12°C° 0 mm 5 m/s 750 mmHg 50%
11:00 +14°C° 0 mm 5 m/s 750 mmHg 48%
12:00 +15°C° 0 mm 6 m/s 750 mmHg 45%
13:00 +16°C° 0 mm 6 m/s 750 mmHg 43%
14:00 +16°C° 0 mm 5 m/s 750 mmHg 45%
15:00 +15°C° 0 mm 4 m/s 750 mmHg 47%
16:00 +15°C° 0 mm 4 m/s 750 mmHg 49%
17:00 +14°C° 0 mm 3 m/s 750 mmHg 55%
18:00 +13°C° 0 mm 3 m/s 750 mmHg 60%
19:00 +12°C° 0 mm 2 m/s 751 mmHg 66%
20:00 +12°C° 0 mm 2 m/s 751 mmHg 68%
21:00 +11°C° 0 mm 1 m/s 752 mmHg 69%
22:00 +10°C° 0 mm 0 m/s 752 mmHg 71%
23:00 +11°C° 0 mm 1 m/s 752 mmHg 73%

Mâine, 11 Aprilie, Duminică

Timp Temperatura Precipitaţii Vânt Presiune Umiditate
00:00 +11°C° 0 mm 1 m/s 752 mmHg 75%
01:00 +9°C° 0 mm 2 m/s 753 mmHg 77%
02:00 +9°C° 0 mm 2 m/s 753 mmHg 78%
03:00 +8°C° 0 mm 2 m/s 753 mmHg 80%
04:00 +8°C° 0 mm 2 m/s 753 mmHg 82%
05:00 +9°C° 0 mm 3 m/s 753 mmHg 78%
06:00 +9°C° 0 mm 3 m/s 753 mmHg 74%
07:00 +10°C° 0 mm 4 m/s 753 mmHg 70%
08:00 +10°C° 0 mm 5 m/s 753 mmHg 64%
09:00 +13°C° 0 mm 6 m/s 753 mmHg 57%
10:00 +15°C° 0 mm 7 m/s 753 mmHg 51%
11:00 +16°C° 0 mm 7 m/s 753 mmHg 48%
12:00 +16°C° 0 mm 8 m/s 752 mmHg 45%
13:00 +17°C° 0 mm 8 m/s 752 mmHg 42%
14:00 +17°C° 0 mm 7 m/s 752 mmHg 44%
15:00 +17°C° 0 mm 7 m/s 752 mmHg 45%
16:00 +17°C° 0 mm 6 m/s 752 mmHg 47%
17:00 +15°C° 0 mm 6 m/s 752 mmHg 50%
18:00 +14°C° 0 mm 5 m/s 752 mmHg 53%
19:00 +13°C° 0 mm 5 m/s 752 mmHg 56%
20:00 +12°C° 0 mm 5 m/s 752 mmHg 58%
21:00 +12°C° 0 mm 5 m/s 752 mmHg 61%
22:00 +10°C° 0 mm 5 m/s 752 mmHg 63%
23:00 +10°C° 0 mm 5 m/s 752 mmHg 67%

Poimâine, 12 Aprilie, Luni

Timp Temperatura Precipitaţii Vânt Presiune Umiditate
00:00 +10°C° 0 mm 5 m/s 752 mmHg 70%
01:00 +9°C° 0 mm 6 m/s 752 mmHg 74%
02:00 +9°C° 0 mm 5 m/s 752 mmHg 75%
03:00 +9°C° 0 mm 5 m/s 751 mmHg 76%
04:00 +9°C° 0 mm 5 m/s 751 mmHg 77%
05:00 +9°C° 0 mm 5 m/s 751 mmHg 77%
06:00 +9°C° 0 mm 5 m/s 751 mmHg 76%
07:00 +10°C° 0 mm 4 m/s 751 mmHg 75%
08:00 +11°C° 0 mm 4 m/s 751 mmHg 73%
09:00 +11°C° 0 mm 4 m/s 751 mmHg 71%
10:00 +12°C° 0 mm 4 m/s 751 mmHg 68%
11:00 +12°C° 0 mm 4 m/s 751 mmHg 67%
12:00 +13°C° 0 mm 4 m/s 751 mmHg 65%
13:00 +13°C° 0 mm 3 m/s 750 mmHg 64%
14:00 +13°C° 0 mm 3 m/s 750 mmHg 63%
15:00 +15°C° 0 mm 2 m/s 750 mmHg 63%
16:00 +15°C° 0 mm 2 m/s 750 mmHg 63%
17:00 +14°C° 0 mm 2 m/s 750 mmHg 67%
18:00 +13°C° 0 mm 1 m/s 750 mmHg 71%
19:00 +12°C° 0 mm 1 m/s 750 mmHg 76%
20:00 +12°C° 0 mm 1 m/s 750 mmHg 77%
21:00 +11°C° 0 mm 1 m/s 750 mmHg 78%
22:00 +11°C° 0 mm 1 m/s 750 mmHg 79%
23:00 +11°C° 0 mm 1 m/s 750 mmHg 80%

13 Aprilie, Marţi

Timp Temperatura Precipitaţii Vânt Presiune Umiditate
00:00 +11°C° 0 mm 1 m/s 750 mmHg 81%
01:00 +11°C° 0 mm 1 m/s 750 mmHg 82%
02:00 +9°C° 0 mm 2 m/s 750 mmHg 85%
03:00 +8°C° 0 mm 3 m/s 750 mmHg 87%
04:00 +7°C° 0 mm 4 m/s 750 mmHg 89%
05:00 +6°C° 0.2 mm 4 m/s 750 mmHg 90%
06:00 +5°C° 0.2 mm 4 m/s 751 mmHg 90%
07:00 +5°C° 0.2 mm 5 m/s 751 mmHg 91%
08:00 +3°C° 0.2 mm 5 m/s 751 mmHg 91%
09:00 +3°C° 0.2 mm 6 m/s 752 mmHg 91%
10:00 +2°C° 0.2 mm 6 m/s 752 mmHg 92%
11:00 +1°C° 0.2 mm 6 m/s 753 mmHg 92%
12:00 +1°C° 0.2 mm 6 m/s 753 mmHg 93%
13:00 -1°C° 0.2 mm 7 m/s 753 mmHg 94%
14:00 -1°C° 0.1 mm 6 m/s 753 mmHg 94%
15:00 -1°C° 0.1 mm 6 m/s 753 mmHg 95%
16:00 -1°C° 0.1 mm 6 m/s 753 mmHg 95%
17:00 -1°C° 0 mm 6 m/s 753 mmHg 95%
18:00 0°C° 0 mm 5 m/s 753 mmHg 95%
19:00 0°C° 0 mm 5 m/s 753 mmHg 94%
20:00 0°C° 0.1 mm 5 m/s 753 mmHg 95%
21:00 0°C° 0.1 mm 5 m/s 753 mmHg 95%
22:00 0°C° 0.1 mm 5 m/s 753 mmHg 96%
23:00 0°C° 0.6 mm 5 m/s 753 mmHg 96%

14 Aprilie, Miercuri

Timp Temperatura Precipitaţii Vânt Presiune Umiditate
00:00 0°C° 0.6 mm 5 m/s 753 mmHg 96%
01:00 -1°C° 0.6 mm 5 m/s 752 mmHg 96%
02:00 -2°C° 0.9 mm 6 m/s 752 mmHg 96%
03:00 -2°C° 0.9 mm 6 m/s 752 mmHg 97%
04:00 -2°C° 0.9 mm 6 m/s 752 mmHg 97%
05:00 -2°C° 0.7 mm 6 m/s 752 mmHg 97%
06:00 -2°C° 0.7 mm 7 m/s 752 mmHg 97%
07:00 -2°C° 0.7 mm 7 m/s 752 mmHg 97%
08:00 -2°C° 0.4 mm 7 m/s 752 mmHg 97%
09:00 -1°C° 0.4 mm 7 m/s 752 mmHg 96%
10:00 -1°C° 0.4 mm 7 m/s 752 mmHg 96%
11:00 -1°C° 0.4 mm 7 m/s 752 mmHg 95%
12:00 0°C° 0.4 mm 7 m/s 751 mmHg 95%
13:00 0°C° 0.4 mm 7 m/s 751 mmHg 95%
14:00 0°C° 0.9 mm 7 m/s 751 mmHg 95%
15:00 -1°C° 0.9 mm 7 m/s 751 mmHg 96%
16:00 -1°C° 0.9 mm 7 m/s 751 mmHg 97%
17:00 -1°C° 0.9 mm 8 m/s 751 mmHg 97%
18:00 -1°C° 0.9 mm 8 m/s 751 mmHg 97%
19:00 -2°C° 0.9 mm 8 m/s 750 mmHg 97%
20:00 -2°C° 1.3 mm 8 m/s 750 mmHg 98%
21:00 -2°C° 1.3 mm 8 m/s 750 mmHg 98%
22:00 -2°C° 1.3 mm 8 m/s 750 mmHg 98%
23:00 -2°C° 1.1 mm 8 m/s 750 mmHg 98%

15 Aprilie, Joi

Timp Temperatura Precipitaţii Vânt Presiune Umiditate
00:00 -2°C° 1.1 mm 7 m/s 749 mmHg 98%
01:00 -2°C° 1.1 mm 7 m/s 749 mmHg 98%
02:00 -2°C° 1.8 mm 7 m/s 749 mmHg 98%
03:00 -3°C° 1.8 mm 7 m/s 749 mmHg 98%
04:00 -3°C° 1.8 mm 7 m/s 749 mmHg 98%
05:00 -3°C° 1.5 mm 7 m/s 749 mmHg 98%
06:00 -3°C° 1.5 mm 6 m/s 749 mmHg 98%
07:00 -3°C° 1.5 mm 6 m/s 749 mmHg 99%
08:00 -3°C° 0.7 mm 6 m/s 749 mmHg 99%
09:00 -3°C° 0.7 mm 6 m/s 749 mmHg 99%
10:00 -1°C° 0.7 mm 5 m/s 749 mmHg 99%
11:00 -1°C° 0.3 mm 5 m/s 750 mmHg 99%
12:00 -1°C° 0.3 mm 5 m/s 750 mmHg 99%
13:00 -1°C° 0.3 mm 5 m/s 750 mmHg 99%
14:00 -1°C° 0.1 mm 5 m/s 750 mmHg 99%
15:00 -1°C° 0.1 mm 5 m/s 750 mmHg 99%
16:00 -1°C° 0.1 mm 5 m/s 750 mmHg 99%
17:00 -1°C° 0.3 mm 5 m/s 750 mmHg 99%
18:00 -1°C° 0.3 mm 5 m/s 750 mmHg 99%
19:00 -1°C° 0.3 mm 5 m/s 750 mmHg 99%
20:00 0°C° 0.3 mm 5 m/s 751 mmHg 99%
21:00 0°C° 0.3 mm 5 m/s 751 mmHg 99%
22:00 0°C° 0.3 mm 5 m/s 751 mmHg 99%
23:00 0°C° 0.6 mm 5 m/s 751 mmHg 99%
Arată mai mult

Formular de consimțământ

Meteoprog și furnizorii noștri de servicii pot stoca și accesa date personale, precum cookies, identificatori de dispozitiv sau alte tehnologii similare pe dispozitivul dumneavoastră și procesa astfel de date pentru a personaliza conținutul și reclamele, dar și pentru a oferi caracteristici de social media și pentru a analiza traficul.

  • Stocarea și/sau accesarea informațiilor pe dispozitivul dumneavoastră

    Cookies, identificatori de dispozitiv sau alte informații pot fi stocate sau accesate pe dispozitiv în scopurile indicate mai sus.

  • Reclame și conținut personalizat, evaluarea reclamelor și a conținutului, informații despre audiențe și dezvoltarea produselor

    Reclamele și conținutul pot fi personalizate pe baza unui profil. Pot fi adăugate date suplimentare pentru a personaliza mai bine reclamele și conținutul. Performanța reclamelor și conținutului poate fi măsurată. Pot fi obținute informații despre utilizatorii care au văzut reclamele și conținutul. Aceste date pot fi utilizate pentru a dezvolta sau îmbunătăți experiența utilizatorilor, sistemele și software-ul.

Dând clic pe ‘Sunt de acord’, permiteți utilizarea cookie-urilor menționate, a identificatorilor de dispozitiv, balizelor web sau altor tehnologii similare. Setările pot fi modificate din browser-ul dispozitivului dumneavoastră.

În anumite scopuri, interesele legitime pot prima asupra consimțământului. Puteți citi mai multe informații în acest sens în Politica privind Confidențialitatea Datelor și Cookie.